[[{"header":{"parameterUnit":"m.s-1","parameterCategory":2,"la1":30.2991,"la2":30.254,"lo1":-89.0895,"lo2":-89.0444,"dy":0.0017,"dx":0.0017,"nx":28,"ny":28,"refTime":"2024-04-16T09:00:00:Z","depth":"0","parameterNumber":2,"parameterNumberName":"U-component_of_CURRENTS"},"data":[0,0,0,0,0,0,0,0,0,0,0,0,0,0,0,0,0,0,0,0,0,0,0,0,0,0,0,0,0,0,0,0,0,0,0,0,0,0,0,0,0,0,0,0,0,0,0,0,0,0,0,0,0,0,0,0,0,0,0.212,0.2121,0,0.2161,0.2161,0.2161,0.2164,0.2164,0.2164,0.2163,0.2164,0.2165,0.2165,0,0,0,0,0,0,0,0,0,0,0,0,0,0.2065,0.2066,0.212,0.2121,0.2122,0.2161,0.2161,0.2161,0.2164,0.2164,0.2164,0.2163,0.2164,0.2165,0.2165,0,0,0,0,0,0,0,0,0,0,0,0,0,0.2094,0.2066,0.212,0.2129,0.213,0.216,0.2161,0.2161,0.2164,0.2164,0.2164,0.2163,0.2164,0.2165,0.2165,0.2177,0,0,0.2166,0.2167,0,0,0,0,0,0,0,0,0.2092,0.2096,0.2127,0.2128,0.213,0.2158,0.2142,0.2165,0.2165,0.215,0.2163,0.2163,0.216,0.2161,0.2168,0.2177,0.2177,0.2167,0.2167,0.2167,0.2167,0,0,0,0,0,0,0,0.209,0.2094,0.2135,0.2128,0.213,0.2138,0.2141,0.2147,0.2155,0.2151,0.2152,0.2159,0.216,0.2167,0.2168,0.2177,0.2167,0.2167,0.2167,0.2167,0.2216,0.2217,0,0,0,0,0,0,0.2088,0.2092,0.2133,0.2136,0.2111,0.2139,0.2143,0.2148,0.2156,0.2157,0.2159,0.2159,0.2167,0.2167,0.2168,0.2207,0.2167,0.2167,0.2168,0.2215,0.2216,0.2217,0,0,0,0,0,0,0.2087,0.2091,0.2132,0.2116,0.2122,0.214,0.2147,0.2149,0.2161,0.2163,0.2163,0.2169,0.2166,0.2167,0.2183,0.2206,0.2168,0.2168,0.2214,0.2215,0.2217,0.2269,0,0,0,0,0,0,0.2085,0.2091,0.2095,0.2116,0.2123,0.2159,0.2148,0.2151,0.2167,0.2167,0.2171,0.2171,0.2166,0.2183,0.2184,0.2206,0.2168,0.2212,0.2214,0.2216,0.2266,0.2272,0.2277,0,0,0,0,0,0.2083,0.209,0.2095,0.21,0.2128,0.216,0.2164,0.2174,0.2168,0.2181,0.2183,0.2171,0.2195,0.2184,0.2185,0.2207,0.2211,0.2214,0.2216,0.2263,0.2271,0.2277,0,0,0,0,0,0,0.2068,0.2092,0.2097,0.2112,0.2138,0.2161,0.2173,0.2179,0.2192,0.2188,0.2184,0.2185,0.2211,0.22,0.2188,0.2227,0.2201,0.2204,0.2237,0.2244,0.2249,0.2253,0.2169,0,0,0,0,0,0.2068,0.2079,0.2108,0.212,0.2134,0.2155,0.2168,0.2177,0.2191,0.2196,0.2202,0.2206,0.2221,0.2224,0.2235,0.2253,0.2282,0.2267,0.2273,0.2278,0.2282,0.2352,0.2364,0.2225,0.2225,0.2225,0,0,0.2063,0.208,0.2085,0.2118,0.2137,0.2166,0.2162,0.2186,0.221,0.2194,0.2224,0.223,0.2232,0.2259,0.2268,0.2251,0.2338,0.2281,0.2285,0.2287,0.2355,0.2369,0.2382,0.2226,0.2226,0.2226,0,0,0.2066,0.208,0.2092,0.2119,0.2153,0.2173,0.2183,0.2213,0.2227,0.2258,0.2255,0.2274,0.2292,0.2302,0.2307,0.2349,0.2371,0.2351,0.2379,0.2446,0.2459,0.247,0.2548,0.2566,0.2348,0.2348,0.2348,0,0.206,0.208,0.2102,0.2129,0.2149,0.2179,0.2202,0.2231,0.2262,0.2277,0.2273,0.2319,0.2315,0.2354,0.2366,0.2363,0.2411,0.2353,0.2456,0.2467,0.2478,0.2555,0.2574,0.2351,0.2351,0.235,0.235,0,0.2076,0.2096,0.2109,0.2152,0.218,0.2205,0.2248,0.2282,0.2301,0.2323,0.2369,0.2379,0.2408,0.2409,0.2398,0.2467,0.2483,0.2462,0.2441,0.2495,0.2573,0.2592,0.2355,0.2354,0.2353,0.2353,0,0,0.2051,0.2106,0.211,0.2134,0.2189,0.2216,0.2268,0.2319,0.2363,0.2392,0.2447,0.2464,0.2477,0.2484,0.2483,0.2526,0.2642,0.2526,0.2528,0.2609,0.2818,0.2798,0.2817,0.2649,0.2652,0.2654,0.2851,0,0.2054,0.2094,0.2123,0.2171,0.2198,0.2247,0.2296,0.2347,0.2399,0.2467,0.2486,0.2539,0.2506,0.2533,0.2574,0.2629,0.269,0.2591,0.2748,0.2753,0.2733,0.2837,0.2742,0.2906,0.2869,0.2872,0.2875,0,0.2056,0.2086,0.212,0.2184,0.2201,0.2238,0.2327,0.2379,0.2476,0.2518,0.2577,0.261,0.2682,0.2648,0.2782,0.2728,0.278,0.2814,0.2823,0.2796,0.2767,0.2841,0.2942,0.2865,0.2904,0.2901,0.2899,0,0.2026,0.2081,0.2105,0.2127,0.2209,0.2239,0.229,0.2385,0.2452,0.2566,0.2636,0.2712,0.2783,0.2851,0.2919,0.2874,0.3075,0.3023,0.3058,0.3058,0.3001,0.299,0.3045,0.313,0.313,0.3129,0.3129,0,0.2017,0.2044,0.2093,0.2117,0.2171,0.2224,0.2307,0.238,0.2496,0.2583,0.2663,0.2764,0.2841,0.2954,0.2988,0.3101,0.3144,0.3097,0.3117,0.3017,0.3006,0.2952,0.2913,0.3137,0.3135,0.3134,0.3132,0,0.2003,0.2024,0.2074,0.2142,0.2163,0.2212,0.2327,0.2397,0.2506,0.2637,0.2681,0.2847,0.2996,0.3075,0.3213,0.3207,0.3217,0.3317,0.3201,0.3201,0.312,0.3088,0.305,0.296,0.3398,0.3398,0.3399,0,0.2007,0.2026,0.2092,0.213,0.2166,0.2238,0.2294,0.2397,0.2473,0.2684,0.2745,0.2939,0.3053,0.3267,0.3314,0.341,0.3278,0.3358,0.3231,0.3135,0.3115,0.2953,0.2866,0.3196,0.3195,0.3194,0.3194,0,0.2052,0.2069,0.2119,0.2158,0.2209,0.2267,0.2343,0.24,0.2526,0.2634,0.2789,0.29,0.3127,0.3202,0.3339,0.3366,0.3193,0.3342,0.3279,0.3001,0.2796,0.271,0.3056,0.3186,0.3187,0.3187,0.3188,0.3188,0.2109,0.2132,0.217,0.2208,0.2248,0.2267,0.2291,0.2368,0.2459,0.2586,0.2749,0.2876,0.3056,0.3243,0.3247,0.3213,0.317,0.3128,0.3118,0.2977,0.2811,0.3145,0.3259,0.326,0.3261,0.3262,0.3263,0,0.2167,0.2174,0.2215,0.2227,0.223,0.2253,0.23,0.2297,0.2341,0.2497,0.2612,0.2808,0.2912,0.301,0.3092,0.3013,0.2824,0.2933,0.2684,0.2624,0.2977,0.2887,0.2881,0.2881,0.2881,0.2881,0.2881,0.2881,0.2202,0.2227,0.2209,0.2195,0.2193,0.215,0.2153,0.2152,0.2213,0.2313,0.2415,0.2561,0.2799,0.2957,0.2915,0.284,0.2609,0.251,0.248,0.2741,0.2756,0.2771,0.2675,0.2625,0.2625,0.1994,0.199,0.1986]},{"header":{"parameterUnit":"m.s-1","parameterCategory":2,"la1":30.2991,"la2":30.254,"lo1":-89.0895,"lo2":-89.0444,"dy":0.0017,"dx":0.0017,"nx":28,"ny":28,"refTime":"2024-04-16T09:00:00:Z","depth":"0","parameterNumber":3,"parameterNumberName":"V-component_of_CURRENTS"},"data":[0,0,0,0,0,0,0,0,0,0,0,0,0,0,0,0,0,0,0,0,0,0,0,0,0,0,0,0,0,0,0,0,0,0,0,0,0,0,0,0,0,0,0,0,0,0,0,0,0,0,0,0,0,0,0,0,0,0,0.0068,0.0068,0,0.0014,0.0014,0.0013,-0.0021,-0.0021,-0.0022,-0.0022,-0.0101,-0.0103,-0.0105,0,0,0,0,0,0,0,0,0,0,0,0,0,0.0114,0.0114,0.0069,0.0068,0.0067,0.0014,0.0014,0.0013,-0.0021,-0.0021,-0.0022,-0.0022,-0.01,-0.0103,-0.0105,0,0,0,0,0,0,0,0,0,0,0,0,0,0.0081,0.0114,0.0069,0.0044,0.0041,0.0014,0.0013,0.0013,-0.0021,-0.0021,-0.0022,-0.0022,-0.01,-0.0102,-0.0105,-0.0119,0,0,-0.0114,-0.0116,0,0,0,0,0,0,0,0,0.0083,0.0079,0.0048,0.0046,0.0043,0.0003,0.0001,-0.0032,-0.0021,0.0002,-0.0022,-0.0022,-0.0068,-0.0074,-0.0083,-0.0122,-0.0126,-0.0115,-0.0116,-0.0118,-0.0118,0,0,0,0,0,0,0,0.0085,0.0081,0.0047,0.0048,0.0044,0.0026,0.0021,-0.0006,-0.0032,0.0,-0.0002,-0.0008,-0.007,-0.008,-0.0086,-0.0127,-0.0115,-0.0117,-0.0119,-0.012,-0.0203,-0.0203,0,0,0,0,0,0,0.0094,0.0083,0.0048,0.0045,0.0063,0.0026,0.002,0.0016,-0.0031,-0.0038,-0.0008,-0.0009,-0.0075,-0.0082,-0.0089,-0.0111,-0.0118,-0.012,-0.0122,-0.0202,-0.0203,-0.0203,0,0,0,0,0,0,0.0095,0.0092,0.0051,0.0063,0.0057,0.0025,0.0021,0.0015,0.0006,-0.0036,-0.0044,-0.0011,-0.0076,-0.0084,-0.0115,-0.0114,-0.0122,-0.0124,-0.0202,-0.0203,-0.0203,-0.0154,0,0,0,0,0,0,0.0097,0.0092,0.0094,0.0064,0.0056,0.0043,0.0021,0.0014,0.0003,-0.0,-0.0042,-0.005,-0.0077,-0.0111,-0.0118,-0.0119,-0.0127,-0.0201,-0.0202,-0.0203,-0.0155,-0.0153,-0.0151,0,0,0,0,0,0.0099,0.0104,0.0094,0.009,0.0059,0.0043,0.0038,0.0014,0.0003,0.0004,-0.0031,-0.0048,-0.0121,-0.0113,-0.0122,-0.0123,-0.0201,-0.0202,-0.0203,-0.0156,-0.0153,-0.0151,0,0,0,0,0,0,0.0127,0.01,0.0089,0.0087,0.007,0.0038,0.0036,0.0019,-0.0008,-0.0012,-0.0053,-0.0063,-0.0092,-0.0116,-0.0106,-0.0151,-0.0165,-0.0167,-0.0126,-0.0124,-0.0122,-0.009,-0.0129,0,0,0,0,0,0.0134,0.0131,0.0103,0.0103,0.0096,0.0067,0.0058,0.0042,0.0014,0.0003,-0.0029,-0.0067,-0.0103,-0.0118,-0.0153,-0.0173,-0.0173,-0.0181,-0.0179,-0.0177,-0.0159,-0.0169,-0.0165,-0.0207,-0.0207,-0.0207,0,0,0.0145,0.0131,0.0128,0.0109,0.0093,0.0089,0.0061,0.0052,0.0045,-0.0002,-0.0021,-0.0061,-0.0109,-0.0136,-0.0151,-0.0154,-0.0164,-0.0178,-0.0176,-0.0159,-0.017,-0.0165,-0.0161,-0.0207,-0.0207,-0.0207,0,0,0.017,0.0154,0.016,0.0148,0.0129,0.0109,0.011,0.008,0.0064,0.0039,-0.0002,-0.0037,-0.0087,-0.012,-0.0145,-0.0152,-0.0157,-0.0166,-0.0124,-0.0135,-0.0131,-0.0127,-0.0108,-0.0104,-0.016,-0.016,-0.016,0,0.0185,0.0188,0.0161,0.0165,0.016,0.0122,0.0131,0.0107,0.007,0.0066,0.0041,-0.0029,-0.0079,-0.0106,-0.0116,-0.0145,-0.0138,-0.0127,-0.0129,-0.0126,-0.0123,-0.0105,-0.01,-0.0158,-0.0158,-0.0158,-0.0159,0,0.0214,0.0215,0.0219,0.021,0.0201,0.0202,0.0169,0.0159,0.0132,0.0112,0.0081,0.0015,-0.0015,-0.0052,-0.009,-0.0097,-0.0093,-0.0126,-0.0127,-0.0115,-0.0098,-0.0093,-0.0155,-0.0155,-0.0156,-0.0157,0,0,0.0248,0.0242,0.0243,0.0256,0.0226,0.0231,0.0216,0.0205,0.0227,0.0164,0.0185,0.0087,0.0068,0.0038,-0.0015,-0.0038,-0.0027,-0.0066,-0.0068,-0.0031,-0.0017,-0.0034,-0.0031,-0.0055,-0.0054,-0.0054,-0.0007,0,0.028,0.0307,0.0287,0.0314,0.0327,0.0293,0.0298,0.0282,0.0265,0.0277,0.0199,0.0197,0.0097,0.0101,0.0054,-0.0,-0.0016,-0.0034,-0.0048,-0.0047,-0.0051,-0.0027,-0.005,-0.0012,-0.0003,-0.0002,-0.0002,0,0.031,0.033,0.0366,0.0389,0.0394,0.041,0.0434,0.0434,0.0425,0.0417,0.0387,0.0342,0.0292,0.0215,0.0128,0.0127,0.0064,0.0011,0.0011,-0.0015,-0.0057,-0.0028,-0.0005,-0.0171,0.0004,0.0004,0.0003,0,0.0362,0.0382,0.0422,0.0426,0.0445,0.047,0.0485,0.0489,0.0535,0.053,0.058,0.0485,0.0489,0.0371,0.024,0.02,0.0164,0.0095,0.0023,0.0023,-0.0004,-0.0009,-0.013,0.0048,0.0048,0.0047,0.0047,0,0.0401,0.0436,0.0463,0.0492,0.058,0.0552,0.0652,0.0653,0.0696,0.0786,0.0678,0.0735,0.0532,0.0475,0.0317,0.0199,0.0225,0.0051,0.0034,0.0012,0.0008,-0.0145,-0.0232,0.0049,0.0049,0.0048,0.0048,0,0.0467,0.0462,0.054,0.0588,0.0615,0.0692,0.0794,0.0875,0.0885,0.1004,0.102,0.0959,0.0869,0.0668,0.0504,0.0339,0.0109,0.0152,0.0152,0.0132,-0.0121,-0.0203,-0.0305,-0.0376,0.0081,0.0081,0.0081,0,0.0508,0.0551,0.0651,0.0728,0.0768,0.0871,0.0961,0.0985,0.1079,0.1152,0.123,0.1175,0.1151,0.0897,0.0581,0.0323,0.0143,0.0145,0.0036,-0.012,-0.0225,-0.0288,-0.0345,0.003,0.0029,0.0029,0.0029,0,0.0634,0.0673,0.0758,0.0899,0.1011,0.1126,0.1242,0.1334,0.1376,0.1454,0.1533,0.1517,0.127,0.0983,0.0621,0.0413,0.0018,0.0128,-0.0042,-0.0274,-0.034,-0.0421,0.0004,0.0025,0.0025,0.0025,0.0026,0.0026,0.0771,0.0861,0.097,0.1095,0.1221,0.1346,0.1437,0.1545,0.1667,0.1764,0.1753,0.1739,0.134,0.0821,0.0537,-0.001,-0.0004,-0.0193,-0.0272,-0.0316,-0.0419,0.0014,0.0009,0.0009,0.001,0.001,0.001,0,0.0929,0.1007,0.115,0.1284,0.1405,0.1433,0.16,0.1673,0.179,0.1899,0.1939,0.1727,0.1239,0.0732,0.0015,-0.0346,-0.0491,-0.0547,-0.0664,-0.0701,-0.0323,-0.0364,-0.044,-0.044,-0.0439,-0.0439,-0.0439,-0.0439,0.1028,0.1174,0.1208,0.1398,0.1481,0.161,0.1686,0.1803,0.1894,0.1985,0.1968,0.1948,0.1554,0.0313,-0.0544,-0.0748,-0.0977,-0.1029,-0.1129,-0.0911,-0.0885,-0.0861,-0.0922,-0.1114,-0.1115,-0.1486,-0.149,-0.1493]}],[{"header":{"parameterUnit":"m.s-1","parameterCategory":2,"la1":30.2991,"la2":30.254,"lo1":-89.0895,"lo2":-89.0444,"dy":0.0017,"dx":0.0017,"nx":28,"ny":28,"refTime":"2024-04-16T09:00:00:Z","depth":"2","parameterNumber":2,"parameterNumberName":"U-component_of_CURRENTS"},"data":[0,0,0,0,0,0,0,0,0,0,0,0,0,0,0,0,0,0,0,0,0,0,0,0,0,0,0,0,0,0,0,0,0,0,0,0,0,0,0,0,0,0,0,0,0,0,0,0,0,0,0,0,0,0,0,0,0,0,0.1889,0.189,0,0.1929,0.1929,0.1929,0.1936,0.1936,0.1936,0.1936,0.1972,0.1973,0.1974,0,0,0,0,0,0,0,0,0,0,0,0,0,0.1817,0.1818,0.1889,0.189,0.1891,0.1929,0.1929,0.1929,0.1936,0.1936,0.1936,0.1936,0.1971,0.1972,0.1974,0,0,0,0,0,0,0,0,0,0,0,0,0,0.1848,0.1818,0.1889,0.1902,0.1904,0.1929,0.1929,0.1929,0.1936,0.1936,0.1936,0.1936,0.1971,0.1972,0.1974,0.1982,0,0,0.1978,0.1979,0,0,0,0,0,0,0,0,0.1846,0.185,0.1899,0.1901,0.1903,0.1931,0.1917,0.1948,0.1936,0.1919,0.1936,0.1936,0.196,0.1963,0.1964,0.1983,0.1985,0.1978,0.1979,0.198,0.198,0,0,0,0,0,0,0,0.1844,0.1848,0.1901,0.19,0.1903,0.1905,0.1909,0.1923,0.1936,0.1921,0.1922,0.1933,0.1961,0.1963,0.1965,0.1985,0.1978,0.1979,0.198,0.1981,0.2073,0.2074,0,0,0,0,0,0,0.1848,0.1847,0.19,0.1903,0.1879,0.1907,0.1911,0.1919,0.1936,0.194,0.1933,0.1933,0.1961,0.1964,0.1967,0.2042,0.198,0.1981,0.1982,0.2071,0.2073,0.2075,0,0,0,0,0,0,0.1846,0.1852,0.1898,0.1879,0.1885,0.1908,0.1917,0.192,0.1932,0.1946,0.1949,0.1944,0.1961,0.1965,0.2015,0.2041,0.1982,0.1983,0.2069,0.2072,0.2074,0.2151,0,0,0,0,0,0,0.1843,0.1851,0.1858,0.1879,0.1887,0.1919,0.1917,0.192,0.194,0.1941,0.1956,0.1959,0.1961,0.2013,0.2016,0.2042,0.1984,0.2067,0.207,0.2073,0.2146,0.2155,0.2163,0,0,0,0,0,0.1841,0.1853,0.1858,0.1865,0.1895,0.192,0.1924,0.1938,0.1941,0.1948,0.1981,0.1959,0.2033,0.2016,0.2019,0.2046,0.2066,0.2069,0.2073,0.2142,0.2154,0.2163,0,0,0,0,0,0,0.1824,0.1856,0.1861,0.1882,0.1902,0.1923,0.1938,0.1944,0.1973,0.1982,0.1989,0.1995,0.205,0.2037,0.2018,0.208,0.2042,0.2046,0.2093,0.2104,0.2112,0.2096,0.1985,0,0,0,0,0,0.1824,0.1843,0.1869,0.1886,0.19,0.192,0.1933,0.1943,0.1972,0.1984,0.2006,0.203,0.2064,0.2077,0.2102,0.2135,0.2139,0.2151,0.2159,0.2167,0.2156,0.2209,0.2222,0.2086,0.2086,0.2086,0,0,0.1822,0.1844,0.1854,0.1885,0.1903,0.1934,0.1927,0.1955,0.1991,0.1985,0.2048,0.2068,0.2084,0.2134,0.2154,0.2127,0.2212,0.2171,0.2178,0.2162,0.2215,0.2228,0.2239,0.2089,0.2088,0.2088,0,0,0.1832,0.1849,0.1869,0.1893,0.1929,0.1948,0.1959,0.1995,0.2021,0.2083,0.2094,0.213,0.2181,0.2194,0.2208,0.2273,0.2264,0.228,0.2302,0.2355,0.2367,0.2377,0.2416,0.2429,0.2274,0.2274,0.2274,0,0.183,0.1857,0.1878,0.1908,0.1935,0.1959,0.199,0.2025,0.2077,0.2103,0.2117,0.2199,0.2209,0.226,0.2285,0.2292,0.2319,0.2264,0.2367,0.2377,0.2386,0.2423,0.2436,0.2278,0.2278,0.2277,0.2277,0,0.185,0.1881,0.1899,0.1948,0.1979,0.2009,0.2063,0.2108,0.215,0.2177,0.2251,0.2282,0.232,0.2333,0.2333,0.2393,0.2393,0.2383,0.2341,0.2404,0.244,0.2452,0.2284,0.2283,0.2281,0.228,0,0,0.1829,0.1898,0.1905,0.1935,0.2002,0.2028,0.2108,0.2168,0.2218,0.2275,0.2338,0.239,0.2392,0.2406,0.2409,0.2442,0.2535,0.2439,0.244,0.2477,0.2658,0.2598,0.2605,0.2556,0.2558,0.256,0.2663,0,0.184,0.1892,0.193,0.1993,0.2029,0.2087,0.2156,0.2217,0.2283,0.2355,0.2387,0.2448,0.2426,0.2455,0.2489,0.2533,0.2569,0.2507,0.2589,0.2591,0.253,0.2617,0.2427,0.2498,0.2675,0.2677,0.2678,0,0.1847,0.1885,0.1938,0.2022,0.2043,0.2087,0.2192,0.2257,0.2356,0.2413,0.247,0.2501,0.2561,0.254,0.2636,0.2607,0.2632,0.2655,0.2659,0.2577,0.2553,0.246,0.2513,0.2698,0.2697,0.2695,0.2694,0,0.1817,0.1893,0.1932,0.196,0.2058,0.2102,0.2159,0.2263,0.2334,0.2444,0.251,0.2576,0.2635,0.2684,0.2728,0.2702,0.2836,0.2806,0.2769,0.2765,0.2601,0.2578,0.2867,0.2867,0.2866,0.2866,0.2866,0,0.1815,0.1853,0.1919,0.1945,0.201,0.208,0.2165,0.2248,0.2363,0.2448,0.2523,0.2602,0.2679,0.2757,0.2776,0.2821,0.2881,0.2787,0.2795,0.2624,0.2603,0.2761,0.2747,0.287,0.2869,0.2868,0.2868,0,0.1791,0.183,0.1885,0.197,0.2001,0.2048,0.2171,0.2235,0.2351,0.2476,0.2518,0.2654,0.2761,0.2823,0.2917,0.2884,0.2928,0.2919,0.2706,0.2686,0.2807,0.2796,0.2896,0.2895,0.2894,0.2893,0.2893,0,0.1792,0.1812,0.1889,0.1937,0.198,0.2055,0.2116,0.2224,0.2296,0.2499,0.2551,0.2698,0.2768,0.2884,0.2882,0.2915,0.2946,0.2729,0.2624,0.2816,0.2814,0.2805,0.2795,0.245,0.2446,0.2442,0.2439,0,0.1816,0.183,0.188,0.1946,0.2006,0.2062,0.2147,0.2189,0.2328,0.243,0.2556,0.2627,0.2747,0.2691,0.2738,0.2721,0.2708,0.2658,0.2945,0.2463,0.2401,0.2397,0.2402,0.2408,0.2412,0.2414,0.2415,0.2417,0.185,0.1871,0.1925,0.1968,0.2038,0.2065,0.2081,0.2142,0.2217,0.2311,0.2435,0.2466,0.2511,0.2477,0.2431,0.2409,0.2573,0.245,0.2459,0.2472,0.2393,0.2331,0.2312,0.2314,0.2316,0.2318,0.232,0,0.1897,0.1913,0.1955,0.1998,0.2021,0.2062,0.2108,0.2076,0.2088,0.2164,0.2211,0.2065,0.206,0.2122,0.205,0.2051,0.2007,0.1967,0.1893,0.1928,0.1958,0.1849,0.1625,0.1623,0.162,0.1618,0,0,0.194,0.1957,0.1922,0.1941,0.1984,0.1975,0.197,0.1924,0.1931,0.1833,0.1819,0.1944,0.2063,0.1801,0.1789,0.1699,0.1788,0.1637,0.2206,0.2155,0.2181,0.2263,0.2139,0,0,0,0,0]},{"header":{"parameterUnit":"m.s-1","parameterCategory":2,"la1":30.2991,"la2":30.254,"lo1":-89.0895,"lo2":-89.0444,"dy":0.0017,"dx":0.0017,"nx":28,"ny":28,"refTime":"2024-04-16T09:00:00:Z","depth":"2","parameterNumber":3,"parameterNumberName":"V-component_of_CURRENTS"},"data":[0,0,0,0,0,0,0,0,0,0,0,0,0,0,0,0,0,0,0,0,0,0,0,0,0,0,0,0,0,0,0,0,0,0,0,0,0,0,0,0,0,0,0,0,0,0,0,0,0,0,0,0,0,0,0,0,0,0,-0.0089,-0.009,0,-0.014,-0.014,-0.0141,-0.0174,-0.0174,-0.0175,-0.0175,-0.0248,-0.025,-0.0252,0,0,0,0,0,0,0,0,0,0,0,0,0,-0.0052,-0.0052,-0.0089,-0.009,-0.009,-0.014,-0.014,-0.0141,-0.0174,-0.0174,-0.0175,-0.0175,-0.0248,-0.025,-0.0252,0,0,0,0,0,0,0,0,0,0,0,0,0,-0.0082,-0.0052,-0.0089,-0.0112,-0.0115,-0.0139,-0.014,-0.0141,-0.0174,-0.0174,-0.0175,-0.0175,-0.0247,-0.0249,-0.0252,-0.0264,0,0,-0.026,-0.0262,0,0,0,0,0,0,0,0,-0.008,-0.0084,-0.0108,-0.0111,-0.0114,-0.015,-0.0154,-0.0183,-0.0174,-0.0152,-0.0175,-0.0175,-0.0217,-0.0222,-0.0232,-0.0267,-0.0271,-0.0261,-0.0262,-0.0263,-0.0264,0,0,0,0,0,0,0,-0.0078,-0.0082,-0.011,-0.0109,-0.0112,-0.0131,-0.0135,-0.016,-0.0184,-0.0154,-0.0157,-0.0161,-0.0219,-0.0229,-0.0234,-0.0272,-0.0261,-0.0263,-0.0265,-0.0266,-0.0337,-0.0337,0,0,0,0,0,0,-0.0069,-0.0079,-0.0108,-0.0111,-0.0096,-0.0131,-0.0136,-0.0139,-0.0183,-0.0189,-0.0161,-0.0163,-0.0224,-0.0231,-0.0236,-0.0252,-0.0263,-0.0266,-0.0268,-0.0337,-0.0337,-0.0337,0,0,0,0,0,0,-0.0068,-0.0071,-0.0106,-0.0096,-0.0102,-0.0131,-0.0134,-0.014,-0.0149,-0.0188,-0.0195,-0.0164,-0.0225,-0.0233,-0.0262,-0.0255,-0.0267,-0.027,-0.0336,-0.0337,-0.0337,-0.0283,0,0,0,0,0,0,-0.0066,-0.007,-0.0068,-0.0095,-0.0102,-0.0115,-0.0134,-0.014,-0.0151,-0.0154,-0.0193,-0.02,-0.0225,-0.0258,-0.0265,-0.0259,-0.0272,-0.0336,-0.0336,-0.0337,-0.0285,-0.0282,-0.0279,0,0,0,0,0,-0.0065,-0.0058,-0.0068,-0.0071,-0.0099,-0.0115,-0.012,-0.0142,-0.0151,-0.0152,-0.0184,-0.0199,-0.0266,-0.026,-0.0268,-0.0263,-0.0336,-0.0336,-0.0337,-0.0286,-0.0282,-0.0279,0,0,0,0,0,0,-0.004,-0.0062,-0.0073,-0.0073,-0.0091,-0.012,-0.0121,-0.0138,-0.0163,-0.0165,-0.0203,-0.0213,-0.0239,-0.026,-0.0253,-0.0287,-0.0303,-0.0305,-0.0261,-0.0258,-0.0256,-0.0225,-0.0274,0,0,0,0,0,-0.0033,-0.0034,-0.006,-0.0059,-0.0065,-0.0093,-0.0101,-0.0116,-0.0142,-0.0153,-0.0182,-0.0215,-0.0247,-0.0259,-0.0292,-0.0306,-0.032,-0.0309,-0.0306,-0.0304,-0.0286,-0.0308,-0.0305,-0.0339,-0.0339,-0.0339,0,0,-0.0023,-0.0035,-0.0035,-0.0053,-0.0068,-0.007,-0.0098,-0.0106,-0.0109,-0.0158,-0.017,-0.021,-0.0252,-0.0273,-0.0285,-0.0288,-0.0303,-0.0304,-0.0302,-0.0285,-0.0309,-0.0305,-0.0302,-0.0339,-0.0339,-0.0339,0,0,0.0001,-0.0013,-0.0004,-0.0016,-0.0033,-0.005,-0.005,-0.0078,-0.009,-0.0111,-0.015,-0.0181,-0.0225,-0.0252,-0.0272,-0.0273,-0.0293,-0.0287,-0.024,-0.0262,-0.0259,-0.0256,-0.027,-0.0269,-0.0278,-0.0278,-0.0278,0,0.0015,0.0022,-0.0004,0.0002,0.0,-0.0037,-0.0026,-0.0046,-0.008,-0.0082,-0.0107,-0.0171,-0.0212,-0.0231,-0.0236,-0.0264,-0.0277,-0.0246,-0.0256,-0.0253,-0.0252,-0.0267,-0.0266,-0.0275,-0.0275,-0.0276,-0.0276,0,0.0043,0.0049,0.0055,0.0051,0.0044,0.0048,0.0021,0.0012,-0.001,-0.0029,-0.0055,-0.0117,-0.0145,-0.0173,-0.0206,-0.0213,-0.0227,-0.0254,-0.0257,-0.0244,-0.0262,-0.0262,-0.0272,-0.0272,-0.0273,-0.0274,0,0,0.0072,0.0076,0.0078,0.0094,0.0073,0.0077,0.0073,0.0067,0.0084,0.0031,0.0045,-0.0031,-0.0056,-0.008,-0.013,-0.0154,-0.0165,-0.019,-0.0193,-0.0191,-0.0204,-0.0243,-0.0247,-0.0192,-0.0192,-0.0192,-0.0221,0,0.0104,0.0137,0.0124,0.0156,0.0174,0.0146,0.0155,0.0143,0.0126,0.0128,0.0063,0.0052,-0.0022,-0.0029,-0.0069,-0.0138,-0.0163,-0.0154,-0.0228,-0.023,-0.0255,-0.0248,-0.0216,-0.0243,-0.0222,-0.0222,-0.0222,0,0.0134,0.0157,0.0199,0.0229,0.0235,0.025,0.0272,0.0275,0.026,0.025,0.0221,0.0172,0.0126,0.006,-0.0041,-0.0029,-0.0106,-0.0168,-0.0171,-0.0221,-0.0269,-0.0254,-0.0244,-0.0223,-0.0223,-0.0223,-0.0223,0,0.0177,0.0209,0.0252,0.0259,0.0282,0.0306,0.032,0.032,0.0347,0.0339,0.0361,0.0283,0.0264,0.0153,0.0014,-0.0005,-0.0097,-0.014,-0.0248,-0.0251,-0.0245,-0.0248,-0.0207,-0.0206,-0.0206,-0.0206,-0.0206,0,0.0215,0.025,0.0284,0.031,0.0379,0.0372,0.0439,0.0443,0.0466,0.052,0.0438,0.0449,0.0288,0.0205,0.0062,-0.0088,-0.0061,-0.023,-0.026,-0.0227,-0.0229,-0.023,-0.0232,-0.0207,-0.0207,-0.0207,-0.0207,0,0.025,0.0268,0.0328,0.0378,0.0405,0.0456,0.0527,0.0574,0.059,0.0658,0.0665,0.059,0.0481,0.031,0.0136,-0.0009,-0.016,-0.0223,-0.0172,-0.0197,-0.031,-0.0309,-0.0336,-0.0337,-0.0339,-0.034,-0.0341,0,0.0269,0.0305,0.0387,0.0444,0.0475,0.055,0.0607,0.0637,0.0695,0.0741,0.078,0.0701,0.0636,0.0362,0.0111,-0.0127,-0.0165,-0.0263,-0.0307,-0.0295,-0.0322,-0.0319,-0.0317,-0.0274,-0.0275,-0.0275,-0.0275,0,0.0317,0.0348,0.0406,0.0508,0.0587,0.0664,0.0752,0.0815,0.0863,0.0926,0.0958,0.0908,0.0657,0.0405,0.008,-0.0087,-0.0226,-0.0278,-0.0263,-0.0256,-0.0243,-0.0268,-0.0266,-0.0278,-0.0277,-0.0277,-0.0277,-0.0277,0.0359,0.0415,0.0489,0.0567,0.0681,0.077,0.081,0.0916,0.1009,0.1101,0.1051,0.0999,0.0725,0.0299,0.0024,-0.0246,-0.025,-0.0354,-0.0351,-0.0348,-0.0344,-0.0335,-0.0386,-0.0386,-0.0387,-0.0387,-0.0387,0,0.041,0.0465,0.0541,0.0627,0.0706,0.0769,0.0899,0.0944,0.1058,0.1172,0.1183,0.0915,0.0637,0.0348,-0.0053,-0.0322,-0.033,-0.0399,-0.0344,-0.0341,-0.0338,-0.0332,-0.0372,-0.0372,-0.0373,-0.0374,0,0,0.045,0.0511,0.0515,0.0598,0.0681,0.0789,0.0858,0.0986,0.1095,0.1185,0.1191,0.1095,0.0739,0.0446,0.0095,-0.0123,-0.0169,-0.0171,-0.0156,-0.0045,-0.0039,-0.0288,-0.0274,0,0,0,0,0]}],[{"header":{"parameterUnit":"m.s-1","parameterCategory":2,"la1":30.2991,"la2":30.254,"lo1":-89.0895,"lo2":-89.0444,"dy":0.0017,"dx":0.0017,"nx":28,"ny":28,"refTime":"2024-04-16T09:00:00:Z","depth":"4","parameterNumber":2,"parameterNumberName":"U-component_of_CURRENTS"},"data":[0,0,0,0,0,0,0,0,0,0,0,0,0,0,0,0,0,0,0,0,0,0,0,0,0,0,0,0,0,0,0,0,0,0,0,0,0,0,0,0,0,0,0,0,0,0,0,0,0,0,0,0,0,0,0,0,0,0,0.1097,0.1098,0,0.1132,0.1132,0.1132,0.1171,0.1172,0.1173,0.1174,0.1208,0.1208,0.1208,0,0,0,0,0,0,0,0,0,0,0,0,0,0.1027,0.1028,0.1097,0.1098,0.1099,0.1132,0.1132,0.1132,0.1171,0.1172,0.1173,0.1174,0.1208,0.1208,0.1208,0,0,0,0,0,0,0,0,0,0,0,0,0,0.1056,0.1028,0.1097,0.1124,0.1127,0.1132,0.1132,0.1133,0.1171,0.1172,0.1173,0.1175,0.1208,0.1208,0.1208,0.1183,0,0,0.1209,0.1209,0,0,0,0,0,0,0,0,0.1054,0.1058,0.112,0.1123,0.1126,0.1152,0.112,0.115,0.117,0.1151,0.1174,0.1175,0.119,0.1192,0.1191,0.1184,0.1186,0.1209,0.1209,0.1209,0.1209,0,0,0,0,0,0,0,0.1052,0.1056,0.1107,0.112,0.1124,0.1123,0.1128,0.1126,0.116,0.1152,0.1156,0.1165,0.1192,0.119,0.1192,0.1186,0.1209,0.1209,0.1209,0.1209,0.1249,0.125,0,0,0,0,0,0,0.1055,0.1055,0.1106,0.1109,0.1096,0.1123,0.1129,0.1139,0.116,0.1166,0.1164,0.1167,0.119,0.1192,0.1193,0.1259,0.1209,0.1209,0.1209,0.1248,0.1249,0.125,0,0,0,0,0,0,0.1054,0.1059,0.1105,0.1085,0.1091,0.1124,0.1134,0.1139,0.1163,0.117,0.1175,0.1186,0.1191,0.1193,0.1217,0.1257,0.1209,0.1209,0.1247,0.1248,0.125,0.133,0,0,0,0,0,0,0.1051,0.1059,0.1076,0.1085,0.1093,0.1121,0.1133,0.1139,0.1167,0.1172,0.119,0.1193,0.1192,0.1217,0.1217,0.1257,0.1209,0.1246,0.1247,0.1249,0.1326,0.1334,0.1341,0,0,0,0,0,0.1049,0.1064,0.1077,0.1084,0.1113,0.1121,0.1125,0.1149,0.1167,0.1176,0.1196,0.1194,0.1229,0.1217,0.1217,0.1258,0.1245,0.1247,0.1249,0.1323,0.1333,0.1341,0,0,0,0,0,0,0.104,0.107,0.1084,0.1108,0.1121,0.113,0.1146,0.1159,0.1181,0.1194,0.12,0.1204,0.1223,0.123,0.1218,0.1273,0.1238,0.1241,0.1294,0.1303,0.1311,0.1344,0.1209,0,0,0,0,0,0.1046,0.1069,0.1088,0.1108,0.1118,0.1135,0.1147,0.1162,0.1178,0.119,0.1205,0.1222,0.1227,0.126,0.1244,0.129,0.1292,0.1317,0.1325,0.1331,0.1357,0.1383,0.1396,0.1257,0.1257,0.1257,0,0,0.1049,0.1069,0.1083,0.1109,0.1123,0.1134,0.1145,0.1168,0.1187,0.1189,0.1225,0.1225,0.1232,0.1267,0.1282,0.1293,0.1369,0.1334,0.134,0.1363,0.1387,0.14,0.1412,0.1259,0.1259,0.1258,0,0,0.1054,0.1083,0.11,0.1111,0.1139,0.1149,0.116,0.1181,0.1206,0.1222,0.1235,0.1285,0.1274,0.1329,0.1342,0.1388,0.1374,0.1373,0.1483,0.1507,0.1519,0.153,0.1545,0.1557,0.1419,0.1419,0.1419,0,0.1059,0.1082,0.1104,0.1117,0.1138,0.1158,0.1176,0.1192,0.1221,0.1266,0.1236,0.1295,0.1309,0.1403,0.1431,0.141,0.1408,0.1451,0.1519,0.153,0.1539,0.1552,0.1564,0.1423,0.1422,0.1422,0.1422,0,0.1064,0.109,0.1099,0.1128,0.1151,0.1168,0.1196,0.1229,0.1251,0.1285,0.1352,0.1373,0.1433,0.1444,0.1455,0.1558,0.1526,0.1491,0.1501,0.1559,0.1568,0.1578,0.1429,0.1427,0.1426,0.1425,0,0,0.1051,0.1098,0.1102,0.1129,0.1164,0.1183,0.1227,0.1292,0.1344,0.1377,0.145,0.151,0.1557,0.1579,0.1614,0.1675,0.1748,0.1638,0.1637,0.1663,0.1795,0.1679,0.1679,0.1719,0.1721,0.1723,0.1772,0,0.1051,0.1083,0.1113,0.1153,0.1173,0.1221,0.1262,0.133,0.1372,0.1439,0.1521,0.1576,0.1596,0.1641,0.1707,0.1716,0.1781,0.1738,0.1728,0.1729,0.1626,0.169,0.1731,0.178,0.1782,0.1784,0.1785,0,0.1041,0.1069,0.1111,0.1186,0.1204,0.1237,0.1335,0.1377,0.1485,0.1521,0.1624,0.1657,0.1794,0.1754,0.1862,0.1827,0.1837,0.1839,0.1839,0.1716,0.1633,0.171,0.1805,0.1803,0.1802,0.18,0.1799,0,0.1017,0.1073,0.1118,0.1135,0.1211,0.1265,0.1321,0.1422,0.1476,0.1596,0.1637,0.1765,0.1825,0.1862,0.1901,0.1881,0.1961,0.192,0.1834,0.1825,0.1878,0.1866,0.199,0.199,0.199,0.199,0.199,0,0.0996,0.103,0.1114,0.1133,0.1204,0.127,0.136,0.1427,0.1523,0.1598,0.17,0.1759,0.1852,0.1906,0.1919,0.1913,0.1982,0.1871,0.1839,0.1907,0.1898,0.1885,0.1872,0.1992,0.1991,0.1991,0.199,0,0.0951,0.1001,0.1058,0.1156,0.1192,0.1249,0.1367,0.1419,0.1522,0.1609,0.1654,0.1778,0.1852,0.1915,0.1973,0.1929,0.1929,0.191,0.1993,0.196,0.1773,0.1764,0.1817,0.1813,0.181,0.1808,0.1806,0,0.0931,0.0952,0.1067,0.1099,0.1147,0.1237,0.1291,0.1407,0.1453,0.1609,0.1634,0.1758,0.183,0.182,0.1893,0.1906,0.1889,0.1873,0.183,0.1797,0.176,0.1756,0.1751,0.1801,0.18,0.18,0.1799,0,0.0883,0.0935,0.0982,0.104,0.1105,0.1168,0.1253,0.1279,0.141,0.1526,0.158,0.163,0.171,0.1756,0.1781,0.1788,0.1869,0.1842,0.1848,0.1807,0.1778,0.1744,0.1742,0.1789,0.179,0.1791,0.1792,0,0.0848,0.0863,0.0915,0.0961,0.1028,0.1049,0.1129,0.1184,0.1247,0.1417,0.1439,0.1569,0.1691,0.1696,0.1718,0.1716,0.1695,0.1633,0.1649,0.1661,0.1589,0.1528,0.1455,0,0,0,0,0,0.0789,0.0774,0.0818,0.0847,0.0911,0.0941,0.1061,0.1141,0.1285,0.1285,0.1352,0.142,0.1479,0.1548,0.1517,0.1652,0.1695,0.1608,0.1628,0.1732,0.1744,0.1674,0,0,0,0,0,0,0.0738,0.0755,0.0769,0.0728,0.0729,0.0775,0.0851,0.0967,0.0976,0.114,0.1182,0.131,0.1388,0.146,0.1474,0.1496,0.1477,0.1696,0.1692,0.1726,0.1736,0.1746,0.1678,0,0,0,0,0]},{"header":{"parameterUnit":"m.s-1","parameterCategory":2,"la1":30.2991,"la2":30.254,"lo1":-89.0895,"lo2":-89.0444,"dy":0.0017,"dx":0.0017,"nx":28,"ny":28,"refTime":"2024-04-16T09:00:00:Z","depth":"4","parameterNumber":3,"parameterNumberName":"V-component_of_CURRENTS"},"data":[0,0,0,0,0,0,0,0,0,0,0,0,0,0,0,0,0,0,0,0,0,0,0,0,0,0,0,0,0,0,0,0,0,0,0,0,0,0,0,0,0,0,0,0,0,0,0,0,0,0,0,0,0,0,0,0,0,0,-0.0024,-0.0024,0,-0.0047,-0.0048,-0.0048,-0.0072,-0.0072,-0.0073,-0.0073,-0.011,-0.0111,-0.0112,0,0,0,0,0,0,0,0,0,0,0,0,0,-0.0007,-0.0007,-0.0024,-0.0024,-0.0025,-0.0047,-0.0048,-0.0048,-0.0072,-0.0072,-0.0073,-0.0073,-0.011,-0.0111,-0.0112,0,0,0,0,0,0,0,0,0,0,0,0,0,-0.002,-0.0007,-0.0024,-0.004,-0.0041,-0.0047,-0.0048,-0.0048,-0.0072,-0.0072,-0.0073,-0.0073,-0.011,-0.0111,-0.0112,-0.0107,0,0,-0.0115,-0.0115,0,0,0,0,0,0,0,0,-0.0019,-0.0021,-0.0037,-0.0039,-0.0041,-0.0058,-0.0056,-0.0068,-0.0071,-0.006,-0.0073,-0.0074,-0.0094,-0.0096,-0.0099,-0.0108,-0.011,-0.0115,-0.0116,-0.0116,-0.0116,0,0,0,0,0,0,0,-0.0019,-0.002,-0.0033,-0.0037,-0.004,-0.0048,-0.005,-0.0058,-0.0073,-0.0061,-0.0063,-0.0066,-0.0095,-0.0097,-0.01,-0.0111,-0.0115,-0.0116,-0.0116,-0.0117,-0.0105,-0.0104,0,0,0,0,0,0,-0.0016,-0.0019,-0.0032,-0.0034,-0.0032,-0.0048,-0.0051,-0.0051,-0.0073,-0.0077,-0.0065,-0.0067,-0.0096,-0.0098,-0.0101,-0.0089,-0.0116,-0.0117,-0.0117,-0.0106,-0.0105,-0.0104,0,0,0,0,0,0,-0.0015,-0.0017,-0.0031,-0.0027,-0.003,-0.0048,-0.0048,-0.0051,-0.0057,-0.0076,-0.0081,-0.0068,-0.0096,-0.01,-0.0101,-0.0091,-0.0117,-0.0118,-0.0107,-0.0106,-0.0105,-0.0069,0,0,0,0,0,0,-0.0015,-0.0016,-0.0016,-0.0027,-0.003,-0.0031,-0.0048,-0.0051,-0.0058,-0.0061,-0.008,-0.0084,-0.0097,-0.0099,-0.0102,-0.0093,-0.0119,-0.0108,-0.0107,-0.0105,-0.0071,-0.0067,-0.0063,0,0,0,0,0,-0.0014,-0.0007,-0.0015,-0.0017,-0.0029,-0.003,-0.0032,-0.0047,-0.0058,-0.0055,-0.0065,-0.0084,-0.009,-0.0099,-0.0102,-0.0094,-0.0109,-0.0107,-0.0105,-0.0073,-0.0068,-0.0063,0,0,0,0,0,0,0.0001,-0.0009,-0.0019,-0.0016,-0.0022,-0.0034,-0.0034,-0.0045,-0.0051,-0.0054,-0.0074,-0.0078,-0.0067,-0.0086,-0.0095,-0.0083,-0.0102,-0.0101,-0.0077,-0.0072,-0.0067,-0.0065,-0.012,0,0,0,0,0,0.0005,0.0006,-0.0006,-0.0003,-0.0006,-0.002,-0.0024,-0.0032,-0.004,-0.0044,-0.0055,-0.0064,-0.006,-0.0072,-0.0067,-0.0071,-0.0105,-0.0066,-0.0062,-0.0058,-0.0057,-0.0103,-0.0103,-0.0097,-0.0097,-0.0097,0,0,0.0011,0.0005,0.0006,0.0,-0.0007,0.0003,-0.0023,-0.0024,-0.0012,-0.0046,-0.0034,-0.0042,-0.0053,-0.0045,-0.0044,-0.0065,-0.0077,-0.0056,-0.0053,-0.0054,-0.0101,-0.0102,-0.0103,-0.0096,-0.0096,-0.0097,0,0,0.0029,0.002,0.0028,0.0028,0.0021,0.0017,0.0018,0.0009,0.0007,0.0019,0.0003,-0.0005,-0.0002,-0.0016,-0.002,0.0008,-0.004,0.0011,0.0016,-0.0028,-0.0029,-0.0031,-0.0076,-0.0082,-0.0003,-0.0003,-0.0003,0,0.0035,0.0047,0.0031,0.0043,0.005,0.0027,0.0045,0.0045,0.0038,0.0038,0.0032,0.0028,0.0015,0.0011,0.0021,0.0017,-0.0019,-0.0004,-0.0024,-0.0026,-0.0029,-0.0075,-0.0082,-0.0001,-0.0002,-0.0002,-0.0002,0,0.0063,0.0073,0.008,0.0091,0.0096,0.0108,0.0106,0.0109,0.0107,0.0101,0.0104,0.0082,0.0069,0.0067,0.0054,0.0032,0.0009,-0.0002,-0.0042,-0.0028,-0.0077,-0.0085,0.0001,0.0001,0.0,-0.0,0,0,0.0072,0.0095,0.0098,0.0113,0.0124,0.0131,0.0154,0.0163,0.0166,0.016,0.0157,0.0157,0.0124,0.0117,0.0085,0.004,-0.0007,0.0008,0.0004,-0.0045,-0.0113,-0.0105,-0.0114,-0.003,-0.0031,-0.0032,-0.0142,0,0.0099,0.0136,0.0141,0.0179,0.0199,0.0196,0.0218,0.0221,0.0216,0.0206,0.0174,0.0167,0.0149,0.0129,0.0086,0.0021,-0.0027,0.0024,-0.0113,-0.0117,-0.0118,-0.0122,-0.0036,-0.0149,-0.0151,-0.0152,-0.0153,0,0.0122,0.0147,0.0191,0.0224,0.0231,0.0252,0.027,0.0283,0.0266,0.0259,0.0232,0.02,0.0146,0.0124,0.0012,0.004,-0.003,-0.0085,-0.0091,-0.0102,-0.0124,-0.0165,-0.0168,-0.0167,-0.0166,-0.0165,-0.0164,0,0.0137,0.0179,0.0219,0.0232,0.0266,0.0284,0.0297,0.0297,0.0301,0.0276,0.0262,0.0205,0.0163,0.0077,-0.0026,-0.0018,-0.0161,-0.0165,-0.0224,-0.0225,-0.0217,-0.0214,-0.0248,-0.0248,-0.0248,-0.0247,-0.0247,0,0.0162,0.0189,0.0228,0.0249,0.0283,0.0303,0.0325,0.0326,0.032,0.0318,0.0278,0.0253,0.0146,0.0057,-0.0033,-0.0154,-0.0169,-0.0225,-0.0253,-0.0198,-0.0192,-0.0224,-0.0219,-0.0252,-0.0251,-0.025,-0.0249,0,0.0159,0.0194,0.0229,0.0274,0.0289,0.0306,0.0335,0.0342,0.0344,0.0332,0.0322,0.0267,0.0165,0.005,-0.01,-0.0163,-0.0279,-0.032,-0.0259,-0.0281,-0.0314,-0.0306,-0.0396,-0.0396,-0.0397,-0.0397,-0.0398,0,0.0154,0.0178,0.0231,0.0242,0.026,0.0293,0.0312,0.0343,0.0355,0.0344,0.0335,0.0248,0.0198,0.0003,-0.0117,-0.0293,-0.031,-0.0377,-0.0334,-0.0311,-0.0329,-0.0321,-0.0313,-0.0398,-0.0399,-0.0399,-0.0399,0,0.0129,0.015,0.0177,0.0213,0.0241,0.0275,0.0311,0.0334,0.0369,0.0363,0.0351,0.0265,0.015,0.0017,-0.0126,-0.0248,-0.0335,-0.0383,-0.0382,-0.0342,-0.0316,-0.0331,-0.0323,-0.0401,-0.04,-0.04,-0.04,0,0.009,0.0099,0.0139,0.0181,0.0213,0.0262,0.0286,0.0324,0.0354,0.0372,0.0363,0.0263,0.0207,0.0038,-0.0093,-0.0212,-0.0234,-0.0265,-0.0271,-0.0271,-0.0193,-0.0138,-0.0197,0,0,0,0,0,0.0048,0.0075,0.0099,0.0167,0.0206,0.0245,0.0289,0.0318,0.0373,0.0372,0.0381,0.0288,0.0126,0.0057,-0.006,-0.0124,-0.0277,-0.0266,-0.0322,-0.0411,-0.0409,-0.0337,0,0,0,0,0,0,0.002,0.0039,0.0092,0.0162,0.0213,0.027,0.031,0.0339,0.0355,0.0382,0.0303,0.0271,0.011,0.0205,-0.0052,-0.0091,-0.0141,-0.0341,-0.0343,-0.0412,-0.041,-0.0409,-0.0334,0,0,0,0,0]}]]